Content
SEND FEEDBACK

Daily
Averages
Monthly
Summary
United States of America

GLEN CANYON CITY, UTAH


Home > North America > United States > Utah
Elevation: 4133 feet     Latitude: 37 05N     Longitude: 111 40W

WEATHER
 
SELECT A DAY
Number of Records: 197,188;   Date Range: 1/1/95 - 10/24/14
 
SHARE

PRINT THIS DATA

[ ← Previous Day ]
WEATHER ALMANAC - AUGUST 1, 2013
[ Next Day → ]
[ °C ]   °F
Weather ElementAverageHighLow
Temperature83.2 °F91.9 °F (11:53 am)78.1 °F (5:53 am)
Dewpoint53.6 °F59 °F (12:51 pm)48.9 °F (1:53 am)
Humidity36.7 %48 % (9:53 pm)24 % (2:53 pm)
Barometer29.89 in30.09 in (12:51 pm)29.77 in (5:53 pm)
Wind Speed7.7 mph19.6 mph (6:53 pm)
Wind Gust25.3 mph (6:53 pm)
Weather ElementAverage
Visibility9.6 mi
Wind DirectionESE (113.3 °)

Weather ElementTotal
Precipitation0.02 in
Cooling Degree Days20 (Base 65)
Growing Degree Days35 (Base 50)
Averaged from 30 records on August 1, 2013
WEATHER CONDITIONS BREAKOUT
WIND DIRECTION BREAKOUT
WEATHER BY HOUR - AUGUST 1, 2013
[ °C ]   °F
Local TimeTemperatureDewpointHumidityBarometerVisibilityWind DirectionWind SpeedGust SpeedPrecipitationEventsConditions
1:53 AM82.9 °F48.9 °F31 %29.86 in10.0 miVariable5.8 mph18.4 mphClear
2:53 AM82.0 °F48.9 °F31 %29.86 in10.0 miSW (230°)6.9 mphMostly Cloudy
3:53 AM81.0 °F50.0 °F34 %29.86 in10.0 miSSW (210°)9.2 mphScattered Clouds
4:53 AM79.0 °F50.0 °F36 %29.86 in10.0 miSouth (180°)8.1 mphClear
5:53 AM78.1 °F51.1 °F39 %29.88 in10.0 miCalmOvercast
6:53 AM79.0 °F51.1 °F38 %29.90 in10.0 miSSE (150°)4.6 mphOvercast
7:53 AM81.0 °F53.1 °F38 %29.91 in10.0 miCalmMostly Cloudy
8:53 AM82.9 °F52.0 °F34 %29.91 in10.0 miCalmClear
9:53 AM84.9 °F51.1 °F31 %29.91 in10.0 miESE (120°)4.6 mphOvercast
10:53 AM86.0 °F52.0 °F31 %29.90 in10.0 miVariable4.6 mphMostly Cloudy
11:53 AM91.9 °F51.1 °F25 %29.87 in10.0 miVariable4.6 mphMostly Cloudy
12:51 PM82.4 °F59.0 °F45 %30.09 in2.5 miESE (120°)8.1 mph0.01 inRainLight Rain
12:53 PM84.0 °F55.9 °F38 %29.87 in5.0 miESE (110°)4.6 mph0.01 inRainLight Rain
1:53 PM91.0 °F52.0 °F26 %29.82 in10.0 miSSE (160°)5.8 mph0.00 inClear
2:53 PM91.0 °F50.0 °F24 %29.79 in10.0 miSouth (170°)4.6 mphClear
3:41 PM91.4 °F50.0 °F24 %30.01 in10.0 miSSE (150°)9.2 mphThunderstormMostly Cloudy
3:53 PM90.0 °F51.1 °F26 %29.78 in10.0 miSouth (170°)16.1 mph23.0 mphThunderstormMostly Cloudy
4:17 PM86.0 °F53.6 °F33 %30.01 inSSE (150°)15.0 mph
4:53 PM87.1 °F53.1 °F31 %29.79 in10.0 miSSE (160°)15.0 mphClear
5:53 PM89.1 °F55.0 °F31 %29.77 in10.0 miSE (140°)17.3 mph21.9 mphScattered Clouds
6:53 PM84.0 °F55.9 °F38 %29.78 in10.0 miSouth (170°)19.6 mph25.3 mphClear
7:53 PM82.0 °F57.9 °F44 %29.79 in10.0 miSouth (180°)17.3 mph25.3 mphMostly Cloudy
8:53 PM80.1 °F57.0 °F45 %29.83 in10.0 miNE (50°)4.6 mphThunderstormThunderstorm
9:07 PM78.8 °F57.2 °F47 %30.05 in10.0 miESE (110°)12.7 mphMostly Cloudy
9:45 PM78.8 °F57.2 °F47 %30.06 in10.0 miVariable3.5 mphThunderstormPartly Cloudy
9:53 PM78.1 °F57.0 °F48 %29.85 in10.0 miVariable3.5 mphThunderstormScattered Clouds
10:07 PM78.8 °F57.2 °F47 %30.06 in10.0 miSouth (170°)5.8 mphThunderstormMostly Cloudy
10:28 PM78.8 °F57.2 °F47 %30.04 in10.0 miSouth (180°)9.2 mphMostly Cloudy
10:53 PM78.1 °F55.9 °F46 %29.84 in10.0 miSouth (170°)6.9 mphMostly Cloudy
11:53 PM78.1 °F55.0 °F45 %29.83 in10.0 miSSE (150°)4.6 mphMostly Cloudy
Hourly data recorded from KPGA, located miles away from Glen Canyon City, Utah







STORIES FROM OUR PARTNERS